TimeEST,TemperatureF,Dew PointF,Humidity,Sea Level PressureIn,VisibilityMPH,Wind Direction,Wind SpeedMPH,Gust SpeedMPH,PrecipitationIn,Events,Conditions,WindDirDegrees,DateUTC
12:53 AM,54.0,48.9,83,30.01,10.0,WSW,9.2,-,0.07,Rain,Light Rain,250,2012-11-13 05:53:00
1:53 AM,52.0,44.1,74,30.06,10.0,West,8.1,21.9,0.01,,Overcast,280,2012-11-13 06:53:00
2:53 AM,50.0,43.0,77,30.09,10.0,WNW,8.1,-,0.00,Rain,Light Rain,290,2012-11-13 07:53:00
3:53 AM,46.9,39.9,77,30.13,10.0,SW,4.6,-,0.03,Rain,Light Rain,220,2012-11-13 08:53:00
4:53 AM,45.0,39.9,82,30.16,10.0,Calm,Calm,-,0.02,Rain,Light Rain,0,2012-11-13 09:53:00
5:09 AM,44.6,41.0,87,30.17,9.0,SSW,5.8,-,0.02,Rain,Light Rain,200,2012-11-13 10:09:00
5:16 AM,44.6,39.2,81,30.18,8.0,Variable,5.8,-,0.02,Rain,Light Rain,0,2012-11-13 10:16:00
5:53 AM,41.0,37.0,86,30.20,10.0,SW,5.8,-,0.15,Rain,Light Rain,220,2012-11-13 10:53:00
6:01 AM,41.0,37.4,87,30.20,10.0,SSW,3.5,-,0.00,Rain,Light Rain,210,2012-11-13 11:01:00
6:10 AM,41.0,37.4,87,30.18,6.0,South,3.5,-,0.01,Rain,Rain,170,2012-11-13 11:10:00
6:44 AM,41.0,39.2,93,30.21,10.0,South,4.6,-,0.03,Rain,Light Rain,180,2012-11-13 11:44:00
6:53 AM,41.0,39.0,93,30.24,10.0,SSW,3.5,-,0.03,,Overcast,210,2012-11-13 11:53:00
7:53 AM,41.0,37.9,89,30.25,10.0,Calm,Calm,-,N/A,,Overcast,0,2012-11-13 12:53:00
8:53 AM,42.1,32.0,67,30.27,10.0,West,10.4,17.3,N/A,,Overcast,260,2012-11-13 13:53:00
9:53 AM,42.1,30.9,65,30.30,10.0,Calm,Calm,-,N/A,,Overcast,0,2012-11-13 14:53:00
10:53 AM,42.1,25.0,51,30.30,10.0,Variable,4.6,-,N/A,,Partly Cloudy,0,2012-11-13 15:53:00
11:53 AM,45.0,23.0,42,30.29,10.0,West,9.2,19.6,N/A,,Clear,270,2012-11-13 16:53:00
12:53 PM,45.0,23.0,42,30.30,10.0,West,10.4,17.3,N/A,,Mostly Cloudy,280,2012-11-13 17:53:00
1:53 PM,46.0,23.0,40,30.30,10.0,West,10.4,18.4,N/A,,Mostly Cloudy,280,2012-11-13 18:53:00
2:53 PM,43.0,23.0,45,30.33,10.0,WNW,5.8,-,N/A,,Mostly Cloudy,290,2012-11-13 19:53:00
5:53 PM,34.0,23.0,64,30.41,10.0,NW,4.6,-,N/A,,Clear,320,2012-11-13 22:53:00
6:53 PM,33.1,24.1,70,30.43,10.0,WNW,3.5,-,N/A,,Clear,300,2012-11-13 23:53:00
7:53 PM,32.0,23.0,69,30.45,10.0,West,5.8,-,N/A,,Clear,280,2012-11-14 00:53:00
8:53 PM,28.9,24.1,82,30.47,10.0,West,4.6,-,N/A,,Clear,270,2012-11-14 01:53:00
9:53 PM,30.0,24.1,79,30.48,10.0,West,4.6,-,N/A,,Clear,270,2012-11-14 02:53:00
11:53 PM,30.0,21.9,72,30.51,10.0,West,4.6,-,N/A,,Clear,280,2012-11-14 04:53:00